Location: Home
(42.5358°N, 72.7383°W)
Time: 12:27:18
(UTC-05:00)

Explorer 11/Cluster Stage 4 - All Passes

Search period start: 30 November 2021 00:00
Search period end: 10 December 2021 00:00
Orbit: 467 x 1255 km, 28.8° (Epoch: 29 November)

Date Brightness Start Highest point End Pass type
(mag) Time Alt. Az. Time Alt. Az. Time Alt. Az.
30 Nov - 02:28:19 10° SSW 02:32:42 17° SSE 02:37:21 10° ESE visible
30 Nov - 04:14:22 10° SW 04:20:43 28° S 04:27:24 10° ESE visible
30 Nov - 06:02:23 10° WSW 06:09:06 29° S 06:15:47 10° SE visible
30 Nov - 07:51:59 10° WSW 07:57:17 19° SSW 08:02:22 10° SSE daylight
01 Dec - 02:16:35 10° SSW 02:21:05 18° SSE 02:25:55 10° ESE visible
01 Dec - 04:02:50 10° SW 04:09:06 28° S 04:15:48 10° ESE visible
01 Dec - 05:50:54 10° WSW 05:57:28 28° S 06:04:07 10° SE visible
01 Dec - 07:40:39 10° WSW 07:45:38 18° SSW 07:50:29 10° SSE daylight
02 Dec - 02:04:56 10° SSW 02:09:28 19° SSE 02:14:27 10° ESE visible
02 Dec - 03:51:21 10° SW 03:57:30 28° S 04:04:11 10° ESE visible
02 Dec - 05:39:28 10° WSW 05:45:50 27° S 05:52:24 10° SE visible
02 Dec - 07:29:25 10° WSW 07:33:59 16° SSW 07:38:29 10° S daylight
03 Dec - 01:53:21 10° SSW 01:57:53 19° SSE 02:02:55 10° ESE visible
03 Dec - 03:39:54 10° SW 03:45:54 28° S 03:52:30 10° ESE visible
03 Dec - 05:28:04 10° WSW 05:34:13 26° S 05:40:38 10° SE visible
03 Dec - 07:18:20 10° SW 07:22:20 14° SSW 07:26:19 10° S daylight
04 Dec - 01:41:52 10° SSW 01:46:20 20° SSE 01:51:20 10° ESE visible
04 Dec - 03:28:31 10° SW 03:34:19 28° S 03:40:47 10° ESE visible
04 Dec - 05:16:45 10° WSW 05:22:36 24° SSW 05:28:47 10° SE visible
04 Dec - 07:07:29 10° SW 07:10:41 13° SSW 07:13:54 10° S daylight
05 Dec - 01:30:25 10° SSW 01:34:47 20° SSE 01:39:44 10° ESE visible
05 Dec - 03:17:11 10° SW 03:22:45 27° S 03:29:03 10° SE visible
05 Dec - 05:05:29 10° WSW 05:10:59 22° SSW 05:16:53 10° SSE visible
05 Dec - 06:57:08 10° SW 06:59:03 11° SSW 07:00:59 10° SSW daylight
06 Dec - 01:19:02 10° SSW 01:23:16 20° SSE 01:28:06 10° ESE night (unlit)
06 Dec - 03:05:53 10° SW 03:11:12 26° S 03:17:15 10° SE visible
06 Dec - 04:54:18 10° WSW 04:59:23 20° SSW 05:04:53 10° SSE visible
07 Dec - 01:07:42 10° SSW 01:11:46 20° SSE 01:16:26 10° ESE night (unlit)
07 Dec - 02:54:39 10° SW 02:59:40 24° S 03:05:26 10° SE visible
07 Dec - 04:43:12 10° WSW 04:47:48 18° SSW 04:52:47 10° SSE visible
08 Dec - 00:56:25 10° SSW 01:00:17 20° SSE 01:04:45 10° SE night (unlit)
08 Dec - 02:43:28 10° SW 02:48:10 23° S 02:53:34 10° SE visible
08 Dec - 04:32:14 10° SW 04:36:15 16° SSW 04:40:34 10° SSE visible
09 Dec - 00:45:10 10° SW 00:48:51 19° S 00:53:03 10° SE night (unlit)
09 Dec - 02:32:20 10° SW 02:36:41 21° S 02:41:40 10° SE visible
09 Dec - 04:21:27 10° SW 04:24:41 14° SSW 04:28:09 10° S visible
